TimeMDT,TemperatureF,Dew PointF,Humidity,Sea Level PressureIn,VisibilityMPH,Wind Direction,Wind SpeedMPH,Gust SpeedMPH,PrecipitationIn,Events,Conditions,WindDirDegrees,DateUTC
12:10 AM,12.2,8.6,85,30.33,0.5,North,-9999.0,-,N/A,Fog,Light Freezing Fog,0,2013-10-05 06:10:00
12:30 AM,12.2,8.6,85,30.34,0.2,North,-9999.0,-,N/A,Fog,Light Freezing Fog,0,2013-10-05 06:30:00
12:50 AM,12.2,8.6,85,30.33,0.2,North,-9999.0,-,N/A,Fog,Light Freezing Fog,0,2013-10-05 06:50:00
1:09 AM,12.2,8.6,85,30.33,0.2,North,-9999.0,-,N/A,Fog,Light Freezing Fog,0,2013-10-05 07:09:00
1:30 AM,12.2,10.4,92,30.33,0.2,North,-9999.0,-,N/A,Fog,Light Freezing Fog,0,2013-10-05 07:30:00
1:50 AM,12.2,10.4,92,30.33,0.2,North,-9999.0,-,N/A,Fog,Light Freezing Fog,0,2013-10-05 07:50:00
2:09 AM,12.2,8.6,85,30.33,0.2,North,-9999.0,-,N/A,Fog,Light Freezing Fog,0,2013-10-05 08:09:00
2:30 AM,12.2,8.6,85,30.32,0.2,North,-9999.0,-,N/A,Fog,Light Freezing Fog,0,2013-10-05 08:30:00
2:50 AM,12.2,8.6,85,30.32,0.2,North,-9999.0,-,N/A,Fog,Light Freezing Fog,0,2013-10-05 08:50:00
3:10 AM,12.2,8.6,85,30.32,0.2,North,-9999.0,-,N/A,Fog,Light Freezing Fog,0,2013-10-05 09:10:00
3:30 AM,12.2,10.4,92,30.32,0.2,North,-9999.0,-,N/A,Snow,Light Snow,0,2013-10-05 09:30:00
3:50 AM,12.2,8.6,85,30.32,0.2,North,-9999.0,-,N/A,Fog,Light Freezing Fog,0,2013-10-05 09:50:00
4:10 AM,12.2,8.6,85,30.33,0.2,North,-9999.0,-,N/A,Fog,Light Freezing Fog,0,2013-10-05 10:10:00
4:30 AM,12.2,8.6,85,30.33,0.2,North,-9999.0,-,N/A,Snow,Light Snow,0,2013-10-05 10:30:00
4:50 AM,12.2,8.6,85,30.35,0.2,North,-9999.0,-,N/A,Fog,Light Freezing Fog,0,2013-10-05 10:50:00
5:10 AM,12.2,8.6,85,30.34,0.2,North,-9999.0,-,N/A,Fog,Light Freezing Fog,0,2013-10-05 11:10:00
5:30 AM,12.2,8.6,85,30.36,0.2,North,-9999.0,-,N/A,Fog,Light Freezing Fog,0,2013-10-05 11:30:00
5:50 AM,12.2,8.6,85,30.34,0.2,North,-9999.0,-,N/A,Fog,Light Freezing Fog,0,2013-10-05 11:50:00
6:10 AM,12.2,8.6,85,30.35,0.5,North,-9999.0,-,N/A,Snow,Light Snow,0,2013-10-05 12:10:00
6:30 AM,12.2,8.6,85,30.35,0.2,North,-9999.0,-,N/A,Snow,Snow,0,2013-10-05 12:30:00
6:50 AM,12.2,8.6,85,30.36,0.2,North,-9999.0,-,N/A,Snow,Light Snow,0,2013-10-05 12:50:00
7:09 AM,12.2,8.6,85,30.37,0.2,North,-9999.0,-,N/A,Snow,Heavy Snow,0,2013-10-05 13:09:00
7:30 AM,12.2,8.6,85,30.38,0.2,North,-9999.0,-,N/A,Snow,Light Snow,0,2013-10-05 13:30:00
7:49 AM,12.2,8.6,85,30.38,0.5,North,-9999.0,-,N/A,Snow,Light Snow,0,2013-10-05 13:49:00
8:09 AM,12.2,8.6,85,30.38,5.0,North,-9999.0,-,N/A,,Scattered Clouds,0,2013-10-05 14:09:00
8:29 AM,12.2,10.4,92,30.39,1.5,North,-9999.0,-,N/A,,Mist,0,2013-10-05 14:29:00
8:49 AM,12.2,10.4,92,30.40,0.2,North,-9999.0,-,N/A,Fog,Light Freezing Fog,0,2013-10-05 14:49:00
9:09 AM,14.0,10.4,86,30.41,10.0,North,-9999.0,-,N/A,,Scattered Clouds,0,2013-10-05 15:09:00
9:29 AM,14.0,10.4,86,30.42,0.2,North,-9999.0,-,N/A,Fog,Light Freezing Fog,0,2013-10-05 15:29:00
9:49 AM,14.0,12.2,93,30.43,1.2,North,-9999.0,-,N/A,,Scattered Clouds,0,2013-10-05 15:49:00
10:09 AM,17.6,14.0,86,30.43,10.0,North,-9999.0,-,N/A,,Scattered Clouds,0,2013-10-05 16:09:00
10:29 AM,17.6,15.8,93,30.44,0.5,North,-9999.0,-,N/A,Fog,Light Freezing Fog,0,2013-10-05 16:29:00
10:49 AM,19.4,15.8,86,30.44,0.2,North,-9999.0,-,N/A,Fog,Light Freezing Fog,0,2013-10-05 16:49:00
11:09 AM,19.4,17.6,93,30.45,0.2,North,-9999.0,-,N/A,Fog,Light Freezing Fog,0,2013-10-05 17:09:00
11:29 AM,19.4,17.6,93,30.46,0.2,North,-9999.0,-,N/A,Fog,Light Freezing Fog,0,2013-10-05 17:29:00
11:49 AM,21.2,19.4,93,30.47,10.0,North,-9999.0,-,N/A,,Scattered Clouds,0,2013-10-05 17:49:00
12:09 PM,21.2,19.4,93,30.47,10.0,North,-9999.0,-,N/A,,Clear,0,2013-10-05 18:09:00
12:27 PM,23.0,21.2,93,30.48,10.0,North,-9999.0,-,N/A,,Clear,0,2013-10-05 18:27:00
12:49 PM,23.0,21.2,93,30.48,10.0,West,5.8,102.4,N/A,,Clear,270,2013-10-05 18:49:00
1:10 PM,26.6,24.8,93,30.49,10.0,North,-9999.0,-,N/A,,Clear,0,2013-10-05 19:10:00
1:27 PM,26.6,23.0,86,30.49,10.0,West,6.9,-,N/A,,Clear,270,2013-10-05 19:27:00
1:49 PM,26.6,23.0,86,30.48,10.0,West,6.9,158.8,N/A,,Clear,270,2013-10-05 19:49:00
1:58 PM,26.6,23.0,86,30.48,10.0,West,12.7,-,N/A,,Clear,270,2013-10-05 19:58:00
2:30 PM,28.4,26.6,93,30.49,10.0,West,27.6,160.0,N/A,,Clear,270,2013-10-05 20:30:00
2:49 PM,26.6,23.0,86,30.48,10.0,North,-9999.0,-,N/A,,Clear,0,2013-10-05 20:49:00
3:09 PM,28.4,21.2,74,30.48,10.0,North,-9999.0,-,N/A,,Clear,0,2013-10-05 21:09:00
3:28 PM,30.2,19.4,64,30.49,10.0,North,-9999.0,-,N/A,,Clear,0,2013-10-05 21:28:00
3:49 PM,32.0,19.4,60,30.50,10.0,North,-9999.0,-,N/A,,Clear,0,2013-10-05 21:49:00
4:09 PM,32.0,19.4,60,30.49,10.0,North,-9999.0,-,N/A,,Clear,0,2013-10-05 22:09:00
4:29 PM,32.0,15.8,51,30.51,10.0,North,-9999.0,-,N/A,,Clear,0,2013-10-05 22:29:00
4:49 PM,32.0,10.4,41,30.51,10.0,North,-9999.0,-,N/A,,Clear,0,2013-10-05 22:49:00
5:09 PM,32.0,10.4,41,30.51,10.0,North,-9999.0,-,N/A,,Clear,0,2013-10-05 23:09:00
5:29 PM,32.0,14.0,48,30.51,10.0,North,-9999.0,-,N/A,,Clear,0,2013-10-05 23:29:00
5:49 PM,30.2,14.0,51,30.51,10.0,North,-9999.0,-,N/A,,Clear,0,2013-10-05 23:49:00
6:09 PM,30.2,14.0,51,30.52,10.0,North,-9999.0,-,N/A,,Clear,0,2013-10-06 00:09:00
6:29 PM,28.4,14.0,55,30.53,10.0,North,-9999.0,-,N/A,,Clear,0,2013-10-06 00:29:00
6:49 PM,26.6,14.0,59,30.53,10.0,North,-9999.0,-,N/A,,Clear,0,2013-10-06 00:49:00
7:09 PM,26.6,14.0,59,30.55,10.0,North,-9999.0,-,N/A,,Clear,0,2013-10-06 01:09:00
7:29 PM,26.6,14.0,59,30.55,10.0,North,-9999.0,-,N/A,,Clear,0,2013-10-06 01:29:00
7:49 PM,24.8,12.2,59,30.56,10.0,North,-9999.0,-,N/A,,Clear,0,2013-10-06 01:49:00
8:10 PM,24.8,12.2,59,30.56,10.0,North,-9999.0,-,N/A,,Clear,0,2013-10-06 02:10:00
8:30 PM,24.8,12.2,59,30.56,10.0,North,-9999.0,-,N/A,,Clear,0,2013-10-06 02:30:00
8:49 PM,24.8,10.4,54,30.57,10.0,North,-9999.0,-,N/A,,Clear,0,2013-10-06 02:49:00
9:10 PM,24.8,10.4,54,30.57,10.0,North,-9999.0,-,N/A,,Clear,0,2013-10-06 03:10:00
9:29 PM,23.0,12.2,63,30.58,10.0,North,-9999.0,-,N/A,,Clear,0,2013-10-06 03:29:00
9:49 PM,21.2,14.0,74,30.57,10.0,North,-9999.0,-,N/A,,Clear,0,2013-10-06 03:49:00
10:10 PM,23.0,12.2,63,30.58,10.0,North,-9999.0,-,N/A,,Clear,0,2013-10-06 04:10:00
10:30 PM,23.0,10.4,59,30.58,10.0,North,-9999.0,-,N/A,,Clear,0,2013-10-06 04:30:00
10:50 PM,23.0,8.6,54,30.58,10.0,North,-9999.0,-,N/A,,Clear,0,2013-10-06 04:50:00
11:10 PM,24.8,5.0,43,30.58,10.0,North,-9999.0,-,N/A,,Clear,0,2013-10-06 05:10:00
11:30 PM,26.6,-0.4,31,30.58,10.0,North,-9999.0,-,N/A,,Clear,0,2013-10-06 05:30:00
11:50 PM,24.8,3.2,40,30.58,10.0,North,-9999.0,-,N/A,,Clear,0,2013-10-06 05:50:00